This is the latest recevied weather packets stored in our database for station/object G1YBJ-13. If no packets are shown the sender has not sent any weather packets the latest 10 day(s).
| Time | Temp. | Humidity | Pressure | Rain* | Wind** | Luminosity | Snow |
|---|---|---|---|---|---|---|---|
| 1777212374 | 24.44° C | 48% | 1025.1 hPa | - | - | - | - |
| 1777211473 | 25° C | 48% | 1025.3 hPa | - | - | - | - |
| 1777210573 | 23.89° C | 50% | 1025.5 hPa | - | - | - | - |
| 1777209672 | 22.78° C | 49% | 1025.4 hPa | - | - | - | - |
| 1777208772 | 23.33° C | 50% | 1025.4 hPa | - | - | - | - |
| 1777207871 | 23.33° C | 50% | 1025.6 hPa | - | - | - | - |
| 1777206970 | 23.33° C | 50% | 1025.7 hPa | - | - | - | - |
| 1777206068 | 23.89° C | 50% | 1025.7 hPa | - | - | - | - |
| 1777205167 | 23.33° C | 51% | 1025.8 hPa | - | - | - | - |
| 1777204267 | 23.33° C | 50% | 1025.9 hPa | - | - | - | - |
| 1777203366 | 22.22° C | 54% | 1026 hPa | - | - | - | - |
| 1777202466 | 21.11° C | 57% | 1026.1 hPa | - | - | - | - |
| 1777201564 | 21.67° C | 58% | 1026.1 hPa | - | - | - | - |
| 1777200663 | 20.56° C | 58% | 1026.2 hPa | - | - | - | - |
| 1777199762 | 19.44° C | 60% | 1026.2 hPa | - | - | - | - |
| 1777198861 | 18.33° C | 61% | 1026.3 hPa | - | - | - | - |
| 1777197960 | 17.22° C | 64% | 1026.3 hPa | - | - | - | - |
| 1777197058 | 16.67° C | 65% | 1026.4 hPa | - | - | - | - |
| 1777196158 | 15.56° C | 66% | 1026.5 hPa | - | - | - | - |
| 1777195257 | 15° C | 67% | 1026.5 hPa | - | - | - | - |
| 1777194357 | 13.89° C | 70% | 1026.7 hPa | - | - | - | - |
| 1777193456 | 12.22° C | 71% | 1026.7 hPa | - | - | - | - |
| 1777192554 | 11.67° C | 73% | 1026.9 hPa | - | - | - | - |
| 1777191654 | 10° C | 75% | 1026.8 hPa | - | - | - | - |
| 1777190752 | 10° C | 77% | 1026.8 hPa | - | - | - | - |
* Rain since midnight (hover to see other rain measurements)
** Current wind speed in m/s (hover to see current wind gust speed)